Stündliche Wetter Labach

Heute, 18 Mai, Dienstag

Zeit Temperatur Niederschläge Wind Luftdruck Luftfeuchtigkeit
00:00 +12°C° 0 mm 1 m/S 731 mmHg 84%
01:00 +12°C° 0 mm 1 m/S 731 mmHg 85%
02:00 +12°C° 0 mm 1 m/S 730 mmHg 86%
03:00 +11°C° 0 mm 0 m/S 730 mmHg 87%
04:00 +11°C° 0 mm 0 m/S 730 mmHg 88%
05:00 +10°C° 0 mm 0 m/S 730 mmHg 89%
06:00 +12°C° 0 mm 0 m/S 730 mmHg 85%
07:00 +13°C° 0 mm 0 m/S 730 mmHg 82%
08:00 +16°C° 0 mm 1 m/S 730 mmHg 78%
09:00 +18°C° 0.4 mm 1 m/S 730 mmHg 75%
10:00 +17°C° 0.4 mm 2 m/S 730 mmHg 72%
11:00 +18°C° 0.4 mm 3 m/S 730 mmHg 69%
12:00 +18°C° 0.7 mm 3 m/S 730 mmHg 70%
13:00 +19°C° 0.7 mm 4 m/S 730 mmHg 70%
14:00 +19°C° 0.7 mm 4 m/S 730 mmHg 71%
15:00 +17°C° 0.8 mm 5 m/S 730 mmHg 76%
16:00 +16°C° 0.8 mm 6 m/S 730 mmHg 81%
17:00 +15°C° 0.8 mm 7 m/S 730 mmHg 86%
18:00 +14°C° 0.4 mm 7 m/S 731 mmHg 89%
19:00 +12°C° 0.4 mm 7 m/S 731 mmHg 92%
20:00 +11°C° 0.4 mm 7 m/S 731 mmHg 94%
21:00 +11°C° 0.1 mm 7 m/S 731 mmHg 95%
22:00 +11°C° 0.1 mm 7 m/S 732 mmHg 95%
23:00 +11°C° 0.1 mm 7 m/S 732 mmHg 95%

Morgen, 19 Mai, Mittwoch

Zeit Temperatur Niederschläge Wind Luftdruck Luftfeuchtigkeit
00:00 +10°C° 0.3 mm 7 m/S 732 mmHg 96%
01:00 +10°C° 0.3 mm 7 m/S 733 mmHg 96%
02:00 +10°C° 0.3 mm 7 m/S 733 mmHg 96%
03:00 +10°C° 0.5 mm 7 m/S 733 mmHg 96%
04:00 +9°C° 0.5 mm 7 m/S 733 mmHg 96%
05:00 +9°C° 0.5 mm 6 m/S 734 mmHg 96%
06:00 +9°C° 0.1 mm 7 m/S 734 mmHg 95%
07:00 +9°C° 0.1 mm 7 m/S 734 mmHg 95%
08:00 +9°C° 0.1 mm 7 m/S 735 mmHg 95%
09:00 +10°C° 0.1 mm 7 m/S 735 mmHg 92%
10:00 +10°C° 0.1 mm 7 m/S 736 mmHg 90%
11:00 +10°C° 0.1 mm 6 m/S 736 mmHg 88%
12:00 +13°C° 0.1 mm 6 m/S 736 mmHg 82%
13:00 +14°C° 0.1 mm 6 m/S 736 mmHg 76%
14:00 +15°C° 0.1 mm 6 m/S 736 mmHg 71%
15:00 +15°C° 0.1 mm 6 m/S 736 mmHg 71%
16:00 +15°C° 0.1 mm 5 m/S 736 mmHg 71%
17:00 +15°C° 0.1 mm 5 m/S 737 mmHg 72%
18:00 +13°C° 0.1 mm 4 m/S 737 mmHg 77%
19:00 +12°C° 0.1 mm 3 m/S 737 mmHg 82%
20:00 +12°C° 0.1 mm 2 m/S 737 mmHg 88%
21:00 +10°C° 0 mm 2 m/S 737 mmHg 89%
22:00 +9°C° 0 mm 2 m/S 737 mmHg 91%
23:00 +9°C° 0 mm 2 m/S 737 mmHg 92%

übermorgen, 20 Mai, Donnerstag

Zeit Temperatur Niederschläge Wind Luftdruck Luftfeuchtigkeit
00:00 +8°C° 0 mm 2 m/S 737 mmHg 92%
01:00 +9°C° 0 mm 1 m/S 737 mmHg 93%
02:00 +9°C° 0 mm 1 m/S 737 mmHg 93%
03:00 +7°C° 0 mm 2 m/S 737 mmHg 94%
04:00 +7°C° 0 mm 2 m/S 737 mmHg 95%
05:00 +7°C° 0 mm 2 m/S 737 mmHg 95%
06:00 +9°C° 0 mm 2 m/S 737 mmHg 91%
07:00 +10°C° 0 mm 3 m/S 737 mmHg 86%
08:00 +11°C° 0 mm 3 m/S 737 mmHg 82%
09:00 +12°C° 0 mm 4 m/S 738 mmHg 77%
10:00 +13°C° 0 mm 4 m/S 738 mmHg 72%
11:00 +15°C° 0 mm 4 m/S 738 mmHg 67%
12:00 +15°C° 0.1 mm 4 m/S 738 mmHg 67%
13:00 +15°C° 0.1 mm 5 m/S 738 mmHg 67%
14:00 +15°C° 0.1 mm 5 m/S 738 mmHg 67%
15:00 +14°C° 0.2 mm 5 m/S 738 mmHg 71%
16:00 +14°C° 0.2 mm 5 m/S 738 mmHg 74%
17:00 +14°C° 0.2 mm 5 m/S 738 mmHg 78%
18:00 +13°C° 0.2 mm 5 m/S 738 mmHg 80%
19:00 +12°C° 0.2 mm 5 m/S 738 mmHg 83%
20:00 +10°C° 0.2 mm 5 m/S 739 mmHg 86%
21:00 +10°C° 0 mm 5 m/S 739 mmHg 87%
22:00 +10°C° 0 mm 4 m/S 739 mmHg 89%
23:00 +10°C° 0 mm 4 m/S 739 mmHg 91%

21 Mai, Freitag

Zeit Temperatur Niederschläge Wind Luftdruck Luftfeuchtigkeit
00:00 +8°C° 0 mm 4 m/S 740 mmHg 91%
01:00 +8°C° 0 mm 4 m/S 740 mmHg 91%
02:00 +8°C° 0 mm 4 m/S 740 mmHg 90%
03:00 +7°C° 0 mm 4 m/S 740 mmHg 91%
04:00 +7°C° 0 mm 4 m/S 741 mmHg 93%
05:00 +8°C° 0 mm 3 m/S 741 mmHg 94%
06:00 +8°C° 0 mm 4 m/S 741 mmHg 86%
07:00 +10°C° 0 mm 4 m/S 742 mmHg 79%
08:00 +12°C° 0 mm 4 m/S 742 mmHg 72%
09:00 +13°C° 0 mm 4 m/S 742 mmHg 66%
10:00 +14°C° 0 mm 5 m/S 742 mmHg 60%
11:00 +15°C° 0 mm 5 m/S 742 mmHg 55%
12:00 +17°C° 0 mm 4 m/S 742 mmHg 53%
13:00 +17°C° 0 mm 4 m/S 742 mmHg 52%
14:00 +18°C° 0 mm 4 m/S 742 mmHg 50%
15:00 +18°C° 0 mm 3 m/S 742 mmHg 51%
16:00 +18°C° 0 mm 3 m/S 742 mmHg 52%
17:00 +18°C° 0 mm 2 m/S 742 mmHg 52%
18:00 +16°C° 0 mm 2 m/S 742 mmHg 58%
19:00 +14°C° 0 mm 2 m/S 742 mmHg 65%
20:00 +13°C° 0 mm 1 m/S 742 mmHg 71%
21:00 +12°C° 0 mm 1 m/S 742 mmHg 72%
22:00 +10°C° 0 mm 2 m/S 742 mmHg 73%
23:00 +10°C° 0 mm 2 m/S 742 mmHg 75%

22 Mai, Samstag

Zeit Temperatur Niederschläge Wind Luftdruck Luftfeuchtigkeit
00:00 +9°C° 0 mm 2 m/S 742 mmHg 75%
01:00 +9°C° 0 mm 2 m/S 741 mmHg 76%
02:00 +8°C° 0 mm 3 m/S 741 mmHg 77%
03:00 +8°C° 0 mm 3 m/S 741 mmHg 78%
04:00 +8°C° 0 mm 3 m/S 741 mmHg 79%
05:00 +8°C° 0 mm 3 m/S 741 mmHg 81%
06:00 +10°C° 0 mm 3 m/S 741 mmHg 77%
07:00 +12°C° 0 mm 4 m/S 741 mmHg 74%
08:00 +13°C° 0 mm 5 m/S 740 mmHg 70%
09:00 +15°C° 0 mm 5 m/S 740 mmHg 65%
10:00 +16°C° 0 mm 5 m/S 740 mmHg 60%
11:00 +19°C° 0 mm 4 m/S 740 mmHg 55%
12:00 +19°C° 0 mm 5 m/S 740 mmHg 54%
13:00 +20°C° 0 mm 5 m/S 740 mmHg 53%
14:00 +21°C° 0 mm 6 m/S 739 mmHg 51%
15:00 +20°C° 0 mm 5 m/S 739 mmHg 56%
16:00 +20°C° 0 mm 5 m/S 738 mmHg 61%
17:00 +20°C° 0 mm 5 m/S 738 mmHg 65%
18:00 +19°C° 0 mm 5 m/S 738 mmHg 71%
19:00 +17°C° 0 mm 5 m/S 738 mmHg 76%
20:00 +15°C° 0 mm 5 m/S 738 mmHg 81%
21:00 +15°C° 0 mm 5 m/S 738 mmHg 80%
22:00 +15°C° 0 mm 5 m/S 738 mmHg 79%
23:00 +14°C° 0 mm 5 m/S 738 mmHg 79%

23 Mai, Sonntag

Zeit Temperatur Niederschläge Wind Luftdruck Luftfeuchtigkeit
00:00 +14°C° 0 mm 5 m/S 738 mmHg 76%
01:00 +14°C° 0 mm 5 m/S 738 mmHg 74%
02:00 +14°C° 0 mm 5 m/S 737 mmHg 71%
03:00 +13°C° 0 mm 4 m/S 738 mmHg 77%
04:00 +12°C° 0 mm 4 m/S 738 mmHg 83%
05:00 +11°C° 0 mm 3 m/S 738 mmHg 89%
06:00 +12°C° 0 mm 3 m/S 739 mmHg 87%
07:00 +12°C° 0 mm 3 m/S 739 mmHg 85%
08:00 +12°C° 0 mm 3 m/S 739 mmHg 83%
09:00 +12°C° 0 mm 3 m/S 740 mmHg 82%
10:00 +12°C° 0 mm 3 m/S 740 mmHg 81%
11:00 +12°C° 0 mm 3 m/S 741 mmHg 80%
12:00 +12°C° 0 mm 3 m/S 741 mmHg 81%
13:00 +12°C° 0 mm 2 m/S 741 mmHg 81%
14:00 +12°C° 0 mm 1 m/S 741 mmHg 81%
15:00 +12°C° 0 mm 2 m/S 741 mmHg 79%
16:00 +13°C° 0 mm 2 m/S 741 mmHg 77%
17:00 +13°C° 0 mm 2 m/S 741 mmHg 74%
18:00 +13°C° 0 mm 2 m/S 741 mmHg 77%
19:00 +12°C° 0 mm 2 m/S 741 mmHg 79%
20:00 +10°C° 0 mm 2 m/S 741 mmHg 82%
21:00 +10°C° 0 mm 2 m/S 741 mmHg 82%
22:00 +10°C° 0 mm 2 m/S 742 mmHg 83%
23:00 +10°C° 0 mm 2 m/S 742 mmHg 83%
Mehr zeigen

Wir brauchen deine Erlaubnis

Meteoprog und unser Service Anbieter werden persönliche Daten aufbewahren, so wie Cookies, Geräte Bezeichnung oder ähnliche Technologien von deinem Gerät und Prozess, so wie Persönliche Daten Inhalte und Werbungen, genauso wie social Media und den Verkehr zu analysieren.

  • Aufbewahrung und/oder Zugang zu deiner Geräte Informationen.

    Cookies, Geräte Bezeichnung oder andere Informationen, können aufbewahrt oder Zugang zu deinem Gerät erhalten, für den Grund, der oben angegeben wird.

  • Personalisierte Werbung und Inhalte, Messungen, Einblick in das Publikum und Produkt Entwicklung.

    Werbungen und Inhalte können personalisiert werden, basierend auf ein Profil. Mehr Daten können besser personalisierte Werbungen und Inhalte hinzufügen. Werbung und Inhalte können gezeigt und gemessen werden. Einblicke über das Publikum, welche die Werbung gesehen haben und den Inhalt, können abgeleitet werden. So wie Daten können genutzt werden, um es zu verbessern oder die Benutzer Erfahrung zu verbessern das System und die Software.

Wenn du “Ich stimme zu” klickst, erlaubst du uns, die Cookies zu benutzen die Geräte Bezeichnung, den Web oder ähnliche Technologien zu benutzen. Deine Settings, können in deinem Gerät bei deinem Browser geändert werden.

Für den bestimmten Zweck, berechtigten Interessen beruhen darauf, mehr als auf den Inhalt. Du kannst mehr darüber in unseren Privaten und Cookie Politik lesen.